Sigfox identifier Datetime Temperature Humidity SNR
003B7E5C 2018-10-09 09:25:24 21.1 38 21.2
003B7E5C 2018-10-09 08:22:50 21.2 39 21.2
003B7E5C 2018-10-09 07:20:14 21.1 39 19.6
003B7E5C 2018-10-09 06:17:41 21.1 38 19.6
003B7E5C 2018-10-09 05:15:04 21.1 38 19.6
003B7E5C 2018-10-09 02:07:25 21.2 37 19.4
003B7E5C 2018-10-09 01:04:49 21.2 37 19.4
003B7E5C 2018-10-09 00:02:13 21.2 37 19.4
003B7E5C 2018-10-08 22:59:39 21.2 37 19.4
003B7E5C 2018-10-08 21:57:05 21.2 37 19.5
003B7E5C 2018-10-08 20:54:32 21.3 36 19.5
003B7E5C 2018-10-08 19:52:00 21.3 36 16.9
003B7E5C 2018-10-08 18:49:23 21.2 36 16.9
003B7E5C 2018-10-08 17:46:45 21.2 36 17
003B7E5C 2018-10-08 16:44:12 21.1 35 16.9
003B7E5C 2018-10-08 15:41:37 21 35 13.4
003B7E5C 2018-10-08 13:36:30 20.9 34 13.5
003B7E5C 2018-10-08 12:33:54 20.9 34 13.5
003B7E5C 2018-10-08 10:28:39 20.7 34 13.3
003B7E5C 2018-10-08 08:23:26 20.7 35 17.9
003B7E5C 2018-10-08 07:20:54 20.6 35 17.8
003B7E5C 2018-10-08 06:18:16 20.7 35 17.9
003B7E5C 2018-10-08 05:15:42 20.7 36 17.8
003B7E5C 2018-10-08 04:13:09 20.8 36 17.8
003B7E5C 2018-10-08 03:10:32 20.8 36 17.8
003B7E5C 2018-10-08 02:08:03 20.8 36 17.8
003B7E5C 2018-10-08 01:05:28 20.8 37 17.8
003B7E5C 2018-10-08 00:02:56 20.8 37 17.7
003B7E5C 2018-10-07 23:00:17 20.8 37 17.7
003B7E5C 2018-10-07 21:57:45 20.9 37 17.7
003B7E5C 2018-10-07 20:55:09 20.8 37 17.6
003B7E5C 2018-10-07 19:52:34 20.9 37 17.6
003B7E5C 2018-10-07 18:50:01 20.8 37 17.6
003B7E5C 2018-10-07 17:47:23 20.9 37 17.5
003B7E5C 2018-10-07 16:44:51 20.8 37 17.4
003B7E5C 2018-10-07 15:42:15 20.8 37 17.5
003B7E5C 2018-10-07 14:39:39 20.9 38 17.5
003B7E5C 2018-10-07 13:37:03 20.9 38 17.6
003B7E5C 2018-10-07 12:34:29 20.9 38 17.6
003B7E5C 2018-10-07 11:31:53 20.9 38 17.7
003B7E5C 2018-10-07 10:29:12 21 38 17.8
003B7E5C 2018-10-07 09:26:38 21 38 17.8
003B7E5C 2018-10-07 08:24:04 21 38 17.8
003B7E5C 2018-10-07 07:21:25 21 38 17.9
003B7E5C 2018-10-07 06:18:54 21 38 13.5
003B7E5C 2018-10-07 05:16:18 21 38 13.5
003B7E5C 2018-10-07 04:13:47 21 38 13.4
003B7E5C 2018-10-07 03:11:12 21 39 13.4
003B7E5C 2018-10-07 02:08:39 21 39 13.5
003B7E5C 2018-10-07 01:06:05 21 39 13.1
003B7E5C 2018-10-07 00:03:29 21 39 13.2
003B7E5C 2018-10-06 23:00:54 21 39 13.5
003B7E5C 2018-10-06 21:58:19 21 39 13.6
003B7E5C 2018-10-06 20:55:46 21 39 13.6
003B7E5C 2018-10-06 19:53:11 21.1 39 13.8
003B7E5C 2018-10-06 18:50:38 21 39 13.9
003B7E5C 2018-10-06 16:45:28 21.1 39 13.8
003B7E5C 2018-10-06 15:42:53 21 39 18
003B7E5C 2018-10-06 14:40:22 21.1 39 18
003B7E5C 2018-10-06 13:37:43 21.1 39 18
003B7E5C 2018-10-06 12:35:09 21.2 39 17.9
003B7E5C 2018-10-06 11:32:34 21.1 39 17.9
003B7E5C 2018-10-06 10:29:58 21.1 39 17.8
003B7E5C 2018-10-06 09:27:23 21.2 40 17.9
003B7E5C 2018-10-06 08:24:47 21.2 40 17.8
003B7E5C 2018-10-06 07:22:14 21.2 40 17.6
003B7E5C 2018-10-06 06:19:38 21.3 40 17.6
003B7E5C 2018-10-06 05:17:03 21.3 40 17.6
003B7E5C 2018-10-06 04:14:29 21.3 41 17.5
003B7E5C 2018-10-06 03:11:49 21.3 41 17.5
003B7E5C 2018-10-06 02:09:12 21.4 41 17.5
003B7E5C 2018-10-06 01:06:39 21.4 41 17.5
003B7E5C 2018-10-06 00:04:01 21.4 41 17.4
003B7E5C 2018-10-05 23:01:25 21.5 41 17.6
003B7E5C 2018-10-05 21:58:53 21.5 42 17.7
003B7E5C 2018-10-05 20:56:15 21.5 42 17.9
003B7E5C 2018-10-05 19:53:46 21.6 42 17.9
003B7E5C 2018-10-05 18:51:08 21.7 42 18.1
003B7E5C 2018-10-05 17:48:29 21.7 42 18.2
003B7E5C 2018-10-05 16:45:54 21.7 42 18.3
003B7E5C 2018-10-05 15:43:16 21.6 41 18.4
003B7E5C 2018-10-05 13:38:02 21.5 40 18.7
003B7E5C 2018-10-05 11:32:55 21.3 39 10.6
003B7E5C 2018-10-05 10:30:19 21.2 36 10.8
003B7E5C 2018-10-05 06:20:00 20.8 30 10.9
003B7E5C 2018-10-05 05:17:22 20.8 29 10.8
003B7E5C 2018-10-05 04:14:48 20.8 29 10.4
003B7E5C 2018-10-05 03:12:07 20.9 29 10.6
003B7E5C 2018-10-05 02:09:32 21 30 9.8
003B7E5C 2018-10-05 01:06:58 21 30 9.2
003B7E5C 2018-10-05 00:04:21 21 30 9.5
003B7E5C 2018-10-04 23:01:39 21.1 30 9.9
003B7E5C 2018-10-04 21:59:04 21.1 30 10
003B7E5C 2018-10-04 20:56:26 21.1 30 9.3
003B7E5C 2018-10-04 19:53:49 21.1 30 10
003B7E5C 2018-10-04 18:51:10 21.1 30 9.9
003B7E5C 2018-10-04 17:48:34 21 30 6
003B7E5C 2018-10-04 13:37:59 20.6 39 0